Regional Weather Roundup
Issued by NWS Binghamton, NY

Home | Current Version | Previous Version | Text Only | Print | Product List | Glossary On
Versions: 1 2 3 4 5 6 7 8 9 10 11 12 13 14 15 16 17 18 19 20 21 22 23 24 25 26 27 28 29 30 31 32 33 34 35 36 37 38 39 40 41 42 43 44 45 46 47 48 49 50
000
ASUS41 KBGM 250010
RWRBGM

REGIONAL WEATHER ROUNDUP
NATIONAL WEATHER SERVICE BINGHAMTON NY
800 PM EDT SUN JUL 24 2016

Note: "fair" indicates few or no clouds below 12,000 feet with no
significant weather and/or obstructions to visibility.

* = Station(s) that does not report precipitation, such as rain,
snow, etc, also no thunder or fog.

NYZ009-015>018-022>025-036-037-044>046-055>057-062-250100
...Central New York...

CITY           SKY/WX    TMP DP  RH WIND       PRES   REMARKS
Binghamton     MOCLDY    80  57  45 NE7       30.00R
Cortland       FAIR      79  61  53 NE8       29.98F
Dansville      MOCLDY    84  66  54 NW5       29.96R HX  86
Elmira         MOCLDY    85  57  38 NE5       29.95R
Ithaca         CLOUDY    80  60  50 NE3       29.97F
Hamilton       CLEAR     75  66  73 CALM      30.00R
Hornell        CLEAR     81  57  44 NW3       30.01R
Monticello     CLOUDY    79  64  61 S6        30.02R
Norwich        CLEAR     77  61  57 NE3       29.99S
Oneonta        CLEAR     75  57  53 CALM      30.02F
Penn Yan       PTCLDY    81  60  48 CALM      29.97S
Rome           CLOUDY    76  67  73 CALM      29.96F
Sidney         CLEAR     77  73  88 NE5       29.98S
Syracuse       CLOUDY    78  62  57 NE3       29.94S
$$

PAZ038>040-043-044-047-048-072-250100
...Northeast Pennsylvania...

CITY           SKY/WX    TMP DP  RH WIND       PRES   REMARKS
Hazleton       PTCLDY    81  61  50 SE3       30.04S
Scranton       MOCLDY    87  58  37 SW3       29.96S HX  86
$$
&&
KEY
WCI = Wind Chill Index
VSB = Visibility
HX  = Heat Index
$$



USA.gov is the U.S. government's official web portal to all federal, state and local government web resources and services.